| time (UTC) | temp C | wind direction | speed KPH | gust KPH | rain 1hr cm | rain 24hr cm | rain mn cm | humidity % | barometer mb |
| 20260902102604 | 31 | 2 | 1.6 | 12.9 | 0.00 | 0.00 | 0.00 | 46 | 1017.9 |
| 20260902102104 | 31 | 106 | 1.6 | 12.9 | 0.00 | 0.00 | 0.00 | 47 | 1017.9 |
| 20260902101104 | 30 | 357 | 8.0 | 14.5 | 0.00 | 0.00 | 0.00 | 49 | 1017.9 |
| 20260902100604 | 30 | 346 | 12.9 | 14.5 | 0.00 | 0.00 | 0.00 | 49 | 1018.3 |
| 20260902100104 | 30 | 349 | 4.8 | 14.5 | 0.00 | 0.00 | 0.00 | 48 | 1017.9 |
| 20260902095604 | 30 | 354 | 4.8 | 14.5 | 0.00 | 0.00 | 0.00 | 48 | 1018.3 |
| 20260902095104 | 30 | 355 | 3.2 | 4.8 | 0.00 | 0.00 | 0.00 | 49 | 1018.3 |
| 20260902094605 | 30 | 0 | 0.0 | 4.8 | 0.00 | 0.00 | 0.00 | 50 | 1018.3 |
| 20260902093605 | 29 | 355 | 1.6 | 8.0 | 0.00 | 0.00 | 0.00 | 51 | 1018.3 |
| 20260902093105 | 28 | 348 | 3.2 | 9.7 | 0.00 | 0.00 | 0.00 | 51 | 1018.3 |
| 20260902092604 | 28 | 1 | 3.2 | 9.7 | 0.00 | 0.00 | 0.00 | 52 | 1017.9 |
| 20260902091605 | 28 | 353 | 1.6 | 9.7 | 0.00 | 0.00 | 0.00 | 54 | 1018.3 |
| 20260902091104 | 27 | 344 | 4.8 | 9.7 | 0.00 | 0.00 | 0.00 | 55 | 1017.9 |
| 20260902090604 | 27 | 357 | 0.0 | 1.6 | 0.00 | 0.00 | 0.00 | 56 | 1017.9 |
| 20260902090105 | 27 | 345 | 0.0 | 1.6 | 0.00 | 0.00 | 0.00 | 57 | 1018.3 |
| 20260902085604 | 27 | 9 | 0.0 | 1.6 | 0.00 | 0.00 | 0.00 | 55 | 1018.3 |
| 20260902085104 | 26 | 231 | 1.6 | 1.6 | 0.00 | 0.00 | 0.00 | 53 | 1018.3 |
| 20260902084104 | 27 | 57 | 0.0 | 1.6 | 0.00 | 0.00 | 0.00 | 53 | 1017.9 |
| 20260902083604 | 27 | 341 | 0.0 | 0.0 | 0.00 | 0.00 | 0.00 | 53 | 1018.3 |
| 20260902082605 | 26 | 9 | 0.0 | 1.6 | 0.00 | 0.00 | 0.00 | 53 | 1018.3 |
| 20260902081604 | 26 | 358 | 0.0 | 3.2 | 0.00 | 0.00 | 0.00 | 54 | 1018.3 |
| 20260902081104 | 26 | 12 | 1.6 | 3.2 | 0.00 | 0.00 | 0.00 | 55 | 1018.3 |
| 20260902080605 | 26 | 15 | 1.6 | 3.2 | 0.00 | 0.00 | 0.00 | 55 | 1018.3 |
| 20260902080105 | 25 | 3 | 0.0 | 3.2 | 0.00 | 0.00 | 0.00 | 56 | 1018.3 |
| 20260902075605 | 24 | 357 | 1.6 | 3.2 | 0.00 | 0.00 | 0.00 | 56 | 1018.3 |
| 20260902075105 | 23 | 358 | 0.0 | 4.8 | 0.00 | 0.00 | 0.00 | 57 | 1018.1 |
| 20260902074605 | 23 | 0 | 1.6 | 4.8 | 0.00 | 0.00 | 0.00 | 58 | 1018.2 |
| 20260902074105 | 22 | 15 | 1.6 | 4.8 | 0.00 | 0.00 | 0.00 | 59 | 1018.1 |
| 20260902073604 | 22 | 19 | 1.6 | 8.0 | 0.00 | 0.00 | 0.00 | 61 | 1018.1 |
| 20260902073104 | 21 | 11 | 3.2 | 8.0 | 0.00 | 0.00 | 0.00 | 61 | 1018.1 |
| 20260902072105 | 21 | 2 | 3.2 | 9.7 | 0.00 | 0.00 | 0.00 | 62 | 1017.9 |
| 20260902071605 | 21 | 1 | 4.8 | 9.7 | 0.00 | 0.00 | 0.00 | 63 | 1018.0 |
| 20260902070604 | 20 | 3 | 4.8 | 9.7 | 0.00 | 0.00 | 0.00 | 64 | 1017.9 |
| 20260902065105 | 20 | 26 | 4.8 | 11.3 | 0.00 | 0.00 | 0.00 | 66 | 1017.9 |
| 20260902064604 | 20 | 1 | 4.8 | 11.3 | 0.00 | 0.00 | 0.00 | 66 | 1017.6 |
| 20260902064104 | 20 | 0 | 4.8 | 8.0 | 0.00 | 0.00 | 0.00 | 66 | 1017.6 |
| 20260902063604 | 19 | 9 | 4.8 | 8.0 | 0.00 | 0.00 | 0.00 | 67 | 1017.3 |
| 20260902063105 | 19 | 18 | 4.8 | 8.0 | 0.00 | 0.00 | 0.00 | 67 | 1017.3 |
| 20260902062605 | 20 | 338 | 3.2 | 8.0 | 0.00 | 0.00 | 0.00 | 66 | 1017.3 |
| 20260902062105 | 20 | 5 | 3.2 | 4.8 | 0.00 | 0.00 | 0.00 | 66 | 1017.6 |
| 20260902061605 | 20 | 7 | 1.6 | 4.8 | 0.00 | 0.00 | 0.00 | 66 | 1017.6 |
| 20260902061104 | 20 | 351 | 3.2 | 4.8 | 0.00 | 0.00 | 0.00 | 67 | 1017.3 |
| 20260902060604 | 19 | 3 | 1.6 | 4.8 | 0.00 | 0.00 | 0.00 | 67 | 1017.3 |
| 20260902055605 | 19 | 14 | 3.2 | 4.8 | 0.00 | 0.00 | 0.00 | 67 | 1017.3 |
| 20260902055104 | 20 | 2 | 3.2 | 4.8 | 0.00 | 0.00 | 0.00 | 67 | 1017.3 |
| 20260902054604 | 19 | 7 | 3.2 | 4.8 | 0.00 | 0.00 | 0.00 | 67 | 1017.3 |
| 20260902054105 | 19 | 353 | 3.2 | 4.8 | 0.00 | 0.00 | 0.00 | 67 | 1017.3 |
| 20260902053605 | 19 | 11 | 1.6 | 4.8 | 0.00 | 0.00 | 0.00 | 67 | 1017.3 |
| 20260902053104 | 20 | 4 | 1.6 | 8.0 | 0.00 | 0.00 | 0.00 | 67 | 1017.3 |
| 20260902052104 | 20 | 7 | 4.8 | 8.0 | 0.00 | 0.00 | 0.00 | 67 | 1017.3 |
| 20260902051604 | 20 | 3 | 3.2 | 9.7 | 0.00 | 0.00 | 0.00 | 67 | 1017.3 |
| 20260902051105 | 20 | 4 | 3.2 | 9.7 | 0.00 | 0.00 | 0.00 | 67 | 1017.3 |
| 20260902050104 | 20 | 7 | 4.8 | 9.7 | 0.00 | 0.00 | 0.00 | 67 | 1017.3 |
| 20260902045605 | 20 | 354 | 4.8 | 9.7 | 0.00 | 0.00 | 0.00 | 67 | 1017.3 |
| 20260902044105 | 20 | 356 | 3.2 | 8.0 | 0.00 | 0.00 | 0.00 | 68 | 1017.3 |
| 20260902043604 | 20 | 9 | 3.2 | 8.0 | 0.00 | 0.00 | 0.00 | 67 | 1016.9 |
| 20260902043104 | 20 | 5 | 3.2 | 4.8 | 0.00 | 0.00 | 0.00 | 67 | 1017.3 |
| 20260902042105 | 20 | 5 | 3.2 | 4.8 | 0.00 | 0.00 | 0.00 | 68 | 1017.3 |
| 20260902041604 | 20 | 2 | 0.0 | 4.8 | 0.00 | 0.00 | 0.00 | 67 | 1017.3 |
| 20260902041105 | 20 | 2 | 3.2 | 4.8 | 0.00 | 0.00 | 0.00 | 67 | 1017.3 |
| 20260902040604 | 20 | 353 | 3.2 | 4.8 | 0.00 | 0.00 | 0.00 | 67 | 1017.3 |
| 20260902040104 | 20 | 5 | 0.0 | 1.6 | 0.00 | 0.00 | 0.00 | 67 | 1017.3 |
| 20260902035605 | 20 | 350 | 0.0 | 0.0 | 0.00 | 0.00 | 0.00 | 67 | 1016.9 |
| 20260902034604 | 20 | 352 | 0.0 | 0.0 | 0.00 | 0.00 | 0.00 | 66 | 1016.9 |
| 20260902034104 | 20 | 344 | 0.0 | 0.0 | 0.00 | 0.00 | 0.00 | 66 | 1016.9 |
| 20260902033604 | 20 | 305 | 0.0 | 1.6 | 0.00 | 0.00 | 0.00 | 66 | 1016.9 |
| 20260902032604 | 20 | 345 | 0.0 | 0.0 | 0.00 | 0.00 | 0.00 | 67 | 1017.3 |
| 20260902031604 | 20 | 345 | 0.0 | 0.0 | 0.00 | 0.00 | 0.00 | 67 | 1016.9 |
| 20260902031105 | 20 | 355 | 0.0 | 0.0 | 0.00 | 0.00 | 0.00 | 67 | 1017.3 |
| 20260902030605 | 20 | 355 | 0.0 | 0.0 | 0.00 | 0.00 | 0.00 | 67 | 1017.3 |
| 20260902030104 | 20 | 356 | 0.0 | 0.0 | 0.00 | 0.00 | 0.00 | 67 | 1017.3 |
| 20260902025605 | 21 | 343 | 0.0 | 0.0 | 0.00 | 0.00 | 0.00 | 66 | 1017.3 |
| 20260902025104 | 21 | 350 | 0.0 | 0.0 | 0.00 | 0.00 | 0.00 | 65 | 1017.3 |
| 20260902024604 | 21 | 348 | 0.0 | 3.2 | 0.00 | 0.00 | 0.00 | 65 | 1017.6 |
| 20260902024105 | 21 | 9 | 1.6 | 3.2 | 0.00 | 0.00 | 0.00 | 65 | 1017.3 |
| 20260902023604 | 21 | 4 | 1.6 | 4.8 | 0.00 | 0.00 | 0.00 | 65 | 1017.6 |
| 20260902022605 | 21 | 16 | 4.8 | 9.7 | 0.00 | 0.00 | 0.00 | 65 | 1017.6 |
| 20260902022105 | 21 | 9 | 3.2 | 8.0 | 0.00 | 0.00 | 0.00 | 65 | 1017.6 |
| 20260902021604 | 21 | 30 | 3.2 | 4.8 | 0.00 | 0.00 | 0.00 | 65 | 1017.6 |
| 20260902021104 | 21 | 14 | 1.6 | 4.8 | 0.00 | 0.00 | 0.00 | 66 | 1017.6 |
| 20260902020105 | 21 | 351 | 0.0 | 3.2 | 0.00 | 0.00 | 0.00 | 67 | 1017.6 |
| 20260902015604 | 21 | 341 | 0.0 | 4.8 | 0.00 | 0.00 | 0.00 | 67 | 1017.6 |
| 20260902015104 | 21 | 12 | 1.6 | 4.8 | 0.00 | 0.00 | 0.00 | 67 | 1017.6 |
| 20260902013604 | 21 | 1 | 3.2 | 4.8 | 0.00 | 0.00 | 0.00 | 69 | 1017.6 |
| 20260902013104 | 21 | 350 | 0.0 | 0.0 | 0.00 | 0.00 | 0.00 | 69 | 1017.6 |
| 20260902012605 | 21 | 352 | 0.0 | 0.0 | 0.00 | 0.00 | 0.00 | 69 | 1017.6 |
| 20260902012105 | 21 | 350 | 0.0 | 1.6 | 0.00 | 0.00 | 0.00 | 69 | 1017.9 |
| 20260902011605 | 21 | 347 | 0.0 | 3.2 | 0.00 | 0.00 | 0.00 | 69 | 1017.6 |
| 20260902011104 | 21 | 351 | 1.6 | 3.2 | 0.00 | 0.00 | 0.00 | 70 | 1017.6 |
| 20260902010604 | 21 | 349 | 0.0 | 4.8 | 0.00 | 0.00 | 0.00 | 70 | 1017.3 |
| 20260902010105 | 21 | 3 | 3.2 | 4.8 | 0.00 | 0.00 | 0.00 | 71 | 1017.6 |
| 20260902005105 | 21 | 2 | 0.0 | 3.2 | 0.00 | 0.00 | 0.00 | 75 | 1017.3 |
| 20260902004605 | 20 | 350 | 1.6 | 4.8 | 0.00 | 0.00 | 0.00 | 75 | 1017.6 |
| 20260902004104 | 20 | 356 | 0.0 | 4.8 | 0.00 | 0.00 | 0.00 | 76 | 1017.6 |
| 20260902003604 | 20 | 1 | 0.0 | 1.6 | 0.00 | 0.00 | 0.00 | 76 | 1017.9 |
| 20260902003104 | 20 | 351 | 0.0 | 1.6 | 0.00 | 0.00 | 0.00 | 76 | 1017.9 |
| 20260902002605 | 20 | 0 | 1.6 | 3.2 | 0.00 | 0.00 | 0.00 | 77 | 1017.7 |
| 20260902002104 | 21 | 356 | 0.0 | 3.2 | 0.00 | 0.00 | 0.00 | 77 | 1017.8 |
| 20260902001605 | 21 | 350 | 0.0 | 0.0 | 0.00 | 0.00 | 0.00 | 77 | 1017.9 |
| 20260902001105 | 21 | 348 | 0.0 | 0.0 | 0.00 | 0.00 | 0.00 | 77 | 1017.9 |
| 20260902000105 | 21 | 349 | 0.0 | 0.0 | 0.00 | 0.00 | 0.00 | 77 | 1017.9 |
| 20260901235605 | 21 | 348 | 0.0 | 0.0 | 0.00 | 0.00 | 0.00 | 77 | 1017.9 |
| 20260901235105 | 21 | 347 | 0.0 | 0.0 | 0.00 | 0.00 | 0.00 | 77 | 1017.9 |
| 20260901234604 | 21 | 347 | 0.0 | 0.0 | 0.00 | 0.00 | 0.00 | 77 | 1017.9 |
| 20260901233604 | 21 | 345 | 0.0 | 0.0 | 0.00 | 0.00 | 0.00 | 77 | 1018.0 |
| 20260901232604 | 21 | 344 | 0.0 | 0.0 | 0.00 | 0.00 | 0.00 | 77 | 1017.9 |
| 20260901232104 | 21 | 341 | 0.0 | 0.0 | 0.00 | 0.00 | 0.00 | 77 | 1018.0 |
| 20260901231605 | 21 | 323 | 0.0 | 1.6 | 0.00 | 0.00 | 0.00 | 77 | 1018.3 |
| 20260901231105 | 21 | 273 | 0.0 | 1.6 | 0.00 | 0.00 | 0.00 | 77 | 1018.3 |
| 20260901230605 | 21 | 358 | 0.0 | 1.6 | 0.00 | 0.00 | 0.00 | 77 | 1018.3 |
| 20260901230105 | 21 | 19 | 0.0 | 1.6 | 0.00 | 0.00 | 0.00 | 76 | 1017.9 |
| 20260901225605 | 21 | 264 | 1.6 | 3.2 | 0.00 | 0.00 | 0.00 | 76 | 1018.3 |
| 20260901225104 | 21 | 158 | 1.6 | 3.2 | 0.00 | 0.00 | 0.00 | 75 | 1017.9 |
| 20260901224605 | 21 | 151 | 1.6 | 3.2 | 0.00 | 0.00 | 0.00 | 75 | 1018.3 |
| 20260901224105 | 21 | 273 | 0.0 | 0.0 | 0.00 | 0.00 | 0.00 | 75 | 1018.3 |
| 20260901223604 | 22 | 2 | 0.0 | 0.0 | 0.00 | 0.00 | 0.00 | 75 | 1018.3 |
| 20260901223104 | 22 | 347 | 0.0 | 0.0 | 0.00 | 0.00 | 0.00 | 74 | 1017.9 |
| 20260901222604 | 22 | 167 | 0.0 | 1.6 | 0.00 | 0.00 | 0.00 | 74 | 1018.3 |
| 20260901221605 | 22 | 271 | 0.0 | 1.6 | 0.00 | 0.00 | 0.00 | 72 | 1017.9 |
| 20260901221105 | 22 | 223 | 0.0 | 1.6 | 0.00 | 0.00 | 0.00 | 71 | 1017.9 |
| 20260901220605 | 22 | 329 | 0.0 | 1.6 | 0.00 | 0.00 | 0.00 | 72 | 1018.3 |
| 20260901220104 | 22 | 89 | 0.0 | 1.6 | 0.00 | 0.00 | 0.00 | 71 | 1018.3 |
| 20260901215604 | 22 | 1 | 0.0 | 3.2 | 0.00 | 0.00 | 0.00 | 72 | 1018.3 |
| 20260901215104 | 22 | 204 | 3.2 | 3.2 | 0.00 | 0.00 | 0.00 | 71 | 1018.3 |
| 20260901214604 | 22 | 199 | 1.6 | 1.6 | 0.00 | 0.00 | 0.00 | 71 | 1017.9 |
| 20260901213605 | 22 | 211 | 0.0 | 1.6 | 0.00 | 0.00 | 0.00 | 70 | 1018.3 |
| 20260901213104 | 22 | 202 | 0.0 | 1.6 | 0.00 | 0.00 | 0.00 | 69 | 1018.3 |
| 20260901212605 | 22 | 330 | 0.0 | 0.0 | 0.00 | 0.00 | 0.00 | 69 | 1018.3 |
| 20260901212104 | 22 | 351 | 0.0 | 0.0 | 0.00 | 0.00 | 0.00 | 69 | 1018.3 |
| 20260901211604 | 22 | 7 | 0.0 | 3.2 | 0.00 | 0.00 | 0.00 | 70 | 1018.3 |
| 20260901211104 | 22 | 217 | 0.0 | 3.2 | 0.00 | 0.00 | 0.00 | 70 | 1018.3 |
| 20260901210605 | 22 | 102 | 0.0 | 1.6 | 0.00 | 0.00 | 0.00 | 69 | 1017.9 |
| 20260901205604 | 22 | 169 | 0.0 | 1.6 | 0.00 | 0.00 | 0.00 | 67 | 1018.3 |
| 20260901205105 | 22 | 184 | 1.6 | 1.6 | 0.00 | 0.00 | 0.00 | 65 | 1017.9 |
| 20260901204604 | 22 | 275 | 0.0 | 0.0 | 0.00 | 0.00 | 0.00 | 64 | 1017.9 |
| 20260901204104 | 22 | 331 | 0.0 | 1.6 | 0.00 | 0.00 | 0.00 | 65 | 1017.9 |
| 20260901203605 | 22 | 335 | 0.0 | 1.6 | 0.00 | 0.00 | 0.00 | 65 | 1017.9 |
| 20260901203104 | 22 | 336 | 0.0 | 1.6 | 0.00 | 0.00 | 0.00 | 66 | 1017.6 |
| 20260901202604 | 22 | 325 | 0.0 | 1.6 | 0.00 | 0.00 | 0.00 | 67 | 1017.3 |
| 20260901202105 | 22 | 323 | 0.0 | 1.6 | 0.00 | 0.00 | 0.00 | 67 | 1017.6 |
| 20260901201605 | 22 | 279 | 0.0 | 0.0 | 0.00 | 0.00 | 0.00 | 66 | 1017.3 |
| 20260901201105 | 22 | 333 | 0.0 | 1.6 | 0.00 | 0.00 | 0.00 | 66 | 1017.3 |
| 20260901200604 | 22 | 330 | 0.0 | 1.6 | 0.00 | 0.00 | 0.00 | 65 | 1017.3 |
| 20260901200105 | 22 | 326 | 0.0 | 1.6 | 0.00 | 0.00 | 0.00 | 64 | 1017.3 |
| 20260901195605 | 22 | 273 | 0.0 | 1.6 | 0.00 | 0.00 | 0.00 | 64 | 1017.3 |
| 20260901195104 | 22 | 336 | 0.0 | 1.6 | 0.00 | 0.00 | 0.00 | 65 | 1016.9 |
| 20260901194604 | 22 | 341 | 0.0 | 3.2 | 0.00 | 0.00 | 0.00 | 64 | 1016.9 |
| 20260901194105 | 23 | 347 | 1.6 | 3.2 | 0.00 | 0.00 | 0.00 | 62 | 1016.9 |
| 20260901193604 | 22 | 338 | 1.6 | 4.8 | 0.00 | 0.00 | 0.00 | 63 | 1016.6 |
| 20260901193104 | 22 | 348 | 0.0 | 4.8 | 0.00 | 0.00 | 0.00 | 64 | 1016.3 |
| 20260901192105 | 22 | 281 | 4.8 | 8.0 | 0.00 | 0.00 | 0.00 | 65 | 1016.3 |
| 20260901191604 | 22 | 304 | 1.6 | 8.0 | 0.00 | 0.00 | 0.00 | 65 | 1016.3 |
| 20260901191105 | 22 | 344 | 0.0 | 3.2 | 0.00 | 0.00 | 0.00 | 65 | 1016.3 |
| 20260901190604 | 22 | 307 | 1.6 | 4.8 | 0.00 | 0.00 | 0.00 | 65 | 1015.9 |
| 20260901190109 | 22 | 331 | 3.2 | 4.8 | 0.00 | 0.00 | 0.00 | 66 | 1015.9 |
| 20260901185605 | 23 | 240 | 1.6 | 4.8 | 0.00 | 0.00 | 0.00 | 66 | 1015.9 |
| 20260901185104 | 23 | 303 | 1.6 | 8.0 | 0.00 | 0.00 | 0.00 | 65 | 1015.9 |
| 20260901184105 | 23 | 273 | 1.6 | 8.0 | 0.00 | 0.00 | 0.00 | 64 | 1015.9 |
| 20260901183607 | 23 | 295 | 1.6 | 4.8 | 0.00 | 0.00 | 0.00 | 64 | 1015.9 |
| 20260901183104 | 23 | 318 | 1.6 | 8.0 | 0.00 | 0.00 | 0.00 | 65 | 1015.6 |
| 20260901182604 | 23 | 306 | 1.6 | 8.0 | 0.00 | 0.00 | 0.00 | 65 | 1015.8 |
| 20260901182105 | 23 | 247 | 1.6 | 8.0 | 0.00 | 0.00 | 0.00 | 64 | 1015.9 |
| 20260901181604 | 23 | 278 | 4.8 | 9.7 | 0.00 | 0.00 | 0.00 | 62 | 1015.9 |
| 20260901181104 | 23 | 286 | 3.2 | 9.7 | 0.00 | 0.00 | 0.00 | 61 | 1015.9 |
| 20260901180604 | 24 | 328 | 1.6 | 9.7 | 0.00 | 0.00 | 0.00 | 61 | 1015.9 |
| 20260901175604 | 24 | 302 | 6.4 | 11.3 | 0.00 | 0.00 | 0.00 | 60 | 1015.8 |
| 20260901175105 | 24 | 332 | 6.4 | 12.9 | 0.00 | 0.00 | 0.00 | 60 | 1015.7 |
| 20260901174105 | 24 | 248 | 4.8 | 11.3 | 0.00 | 0.00 | 0.00 | 62 | 1015.6 |
| 20260901173605 | 25 | 262 | 3.2 | 9.7 | 0.00 | 0.00 | 0.00 | 63 | 1015.6 |
| 20260901173104 | 24 | 274 | 3.2 | 9.7 | 0.00 | 0.00 | 0.00 | 63 | 1015.6 |
| 20260901172604 | 25 | 257 | 3.2 | 8.0 | 0.00 | 0.00 | 0.00 | 62 | 1015.6 |
| 20260901172105 | 25 | 311 | 1.6 | 8.0 | 0.00 | 0.00 | 0.00 | 61 | 1015.9 |
| 20260901171604 | 25 | 337 | 1.6 | 8.0 | 0.00 | 0.00 | 0.00 | 61 | 1015.9 |
| 20260901171105 | 25 | 262 | 1.6 | 9.7 | 0.00 | 0.00 | 0.00 | 61 | 1015.6 |
| 20260901170605 | 25 | 230 | 4.8 | 9.7 | 0.00 | 0.00 | 0.00 | 60 | 1015.6 |
| 20260901170104 | 25 | 221 | 4.8 | 11.3 | 0.00 | 0.00 | 0.00 | 60 | 1015.9 |
| 20260901165604 | 25 | 270 | 4.8 | 11.3 | 0.00 | 0.00 | 0.00 | 60 | 1015.6 |
| 20260901165105 | 25 | 268 | 3.2 | 9.7 | 0.00 | 0.00 | 0.00 | 59 | 1015.6 |
| 20260901164605 | 25 | 255 | 3.2 | 9.7 | 0.00 | 0.00 | 0.00 | 59 | 1015.6 |
| 20260901164104 | 26 | 251 | 4.8 | 9.7 | 0.00 | 0.00 | 0.00 | 58 | 1015.9 |
| 20260901163605 | 25 | 299 | 4.8 | 9.7 | 0.00 | 0.00 | 0.00 | 58 | 1015.9 |
| 20260901163104 | 26 | 306 | 0.0 | 9.7 | 0.00 | 0.00 | 0.00 | 59 | 1015.6 |
| 20260901162605 | 26 | 339 | 0.0 | 4.8 | 0.00 | 0.00 | 0.00 | 59 | 1015.9 |
| 20260901162104 | 26 | 292 | 1.6 | 8.0 | 0.00 | 0.00 | 0.00 | 59 | 1015.9 |
| 20260901161604 | 26 | 244 | 3.2 | 9.7 | 0.00 | 0.00 | 0.00 | 58 | 1015.9 |
| 20260901161105 | 26 | 299 | 3.2 | 9.7 | 0.00 | 0.00 | 0.00 | 58 | 1015.9 |
| 20260901160605 | 26 | 314 | 3.2 | 9.7 | 0.00 | 0.00 | 0.00 | 57 | 1015.9 |
| 20260901160105 | 26 | 343 | 1.6 | 4.8 | 0.00 | 0.00 | 0.00 | 58 | 1016.3 |
| 20260901155605 | 26 | 326 | 1.6 | 9.7 | 0.00 | 0.00 | 0.00 | 59 | 1015.9 |
| 20260901155104 | 26 | 213 | 4.8 | 9.7 | 0.00 | 0.00 | 0.00 | 59 | 1016.3 |
| 20260901154605 | 27 | 265 | 3.2 | 11.3 | 0.00 | 0.00 | 0.00 | 57 | 1016.3 |
| 20260901153604 | 27 | 314 | 4.8 | 11.3 | 0.00 | 0.00 | 0.00 | 60 | 1015.9 |
| 20260901153105 | 27 | 295 | 3.2 | 9.7 | 0.00 | 0.00 | 0.00 | 57 | 1016.3 |
| 20260901152604 | 28 | 244 | 4.8 | 9.7 | 0.00 | 0.00 | 0.00 | 57 | 1016.3 |
| 20260901152105 | 29 | 264 | 1.6 | 8.0 | 0.00 | 0.00 | 0.00 | 50 | 1016.3 |
| 20260901151604 | 28 | 69 | 1.6 | 11.3 | 0.00 | 0.00 | 0.00 | 46 | 1016.3 |
| 20260901151105 | 29 | 245 | 4.8 | 11.3 | 0.00 | 0.00 | 0.00 | 50 | 1016.3 |
| 20260901150605 | 29 | 251 | 0.0 | 4.8 | 0.00 | 0.00 | 0.00 | 48 | 1016.3 |
| 20260901150105 | 29 | 243 | 3.2 | 4.8 | 0.00 | 0.00 | 0.00 | 46 | 1016.3 |
| 20260901145604 | 28 | 290 | 1.6 | 4.8 | 0.00 | 0.00 | 0.00 | 48 | 1016.6 |
| 20260901145104 | 29 | 217 | 1.6 | 3.2 | 0.00 | 0.00 | 0.00 | 49 | 1016.3 |
| 20260901144605 | 29 | 174 | 1.6 | 4.8 | 0.00 | 0.00 | 0.00 | 48 | 1016.3 |
| 20260901143605 | 29 | 206 | 1.6 | 8.0 | 0.00 | 0.00 | 0.00 | 48 | 1016.3 |
| 20260901143104 | 30 | 196 | 3.2 | 4.8 | 0.00 | 0.00 | 0.00 | 45 | 1016.3 |
| 20260901142605 | 29 | 226 | 1.6 | 4.8 | 0.00 | 0.00 | 0.00 | 45 | 1016.3 |
| 20260901142104 | 30 | 269 | 0.0 | 4.8 | 0.00 | 0.00 | 0.00 | 46 | 1016.6 |
| 20260901141605 | 30 | 211 | 3.2 | 8.0 | 0.00 | 0.00 | 0.00 | 47 | 1016.6 |
| 20260901141104 | 30 | 210 | 3.2 | 8.0 | 0.00 | 0.00 | 0.00 | 47 | 1016.6 |
| 20260901140605 | 29 | 256 | 1.6 | 8.0 | 0.00 | 0.00 | 0.00 | 48 | 1016.6 |
| 20260901140105 | 29 | 277 | 4.8 | 8.0 | 0.00 | 0.00 | 0.00 | 47 | 1016.6 |
| 20260901135104 | 29 | 244 | 1.6 | 9.7 | 0.00 | 0.00 | 0.00 | 47 | 1016.6 |
| 20260901134605 | 29 | 257 | 4.8 | 9.7 | 0.00 | 0.00 | 0.00 | 46 | 1016.6 |
| 20260901134104 | 29 | 260 | 1.6 | 9.7 | 0.00 | 0.00 | 0.00 | 46 | 1016.9 |
| 20260901133605 | 29 | 260 | 1.6 | 8.0 | 0.00 | 0.00 | 0.00 | 45 | 1016.9 |
| 20260901133104 | 29 | 239 | 1.6 | 9.7 | 0.00 | 0.00 | 0.00 | 45 | 1016.9 |
| 20260901132605 | 28 | 236 | 4.8 | 9.7 | 0.00 | 0.00 | 0.00 | 44 | 1016.9 |
| 20260901131605 | 29 | 208 | 1.6 | 8.0 | 0.00 | 0.00 | 0.00 | 42 | 1017.3 |
| 20260901131104 | 29 | 320 | 1.6 | 8.0 | 0.00 | 0.00 | 0.00 | 45 | 1017.3 |
| 20260901130605 | 29 | 271 | 4.8 | 9.7 | 0.00 | 0.00 | 0.00 | 44 | 1017.3 |
| 20260901130105 | 28 | 264 | 3.2 | 9.7 | 0.00 | 0.00 | 0.00 | 45 | 1017.3 |
| 20260901125605 | 28 | 249 | 1.6 | 9.7 | 0.00 | 0.00 | 0.00 | 47 | 1016.9 |
| 20260901125104 | 28 | 294 | 3.2 | 9.7 | 0.00 | 0.00 | 0.00 | 47 | 1017.3 |
| 20260901124605 | 28 | 267 | 1.6 | 8.0 | 0.00 | 0.00 | 0.00 | 47 | 1017.3 |
| 20260901123605 | 28 | 255 | 0.0 | 8.0 | 0.00 | 0.00 | 0.00 | 47 | 1017.3 |
| 20260901123104 | 28 | 237 | 3.2 | 8.0 | 0.00 | 0.00 | 0.00 | 47 | 1017.3 |
| 20260901122605 | 28 | 223 | 1.6 | 9.7 | 0.00 | 0.00 | 0.00 | 46 | 1017.3 |
| 20260901122104 | 28 | 232 | 3.2 | 11.3 | 0.00 | 0.00 | 0.00 | 48 | 1017.3 |
| 20260901121604 | 27 | 296 | 4.8 | 11.3 | 0.00 | 0.00 | 0.00 | 51 | 1016.9 |
| 20260901121104 | 28 | 256 | 1.6 | 8.0 | 0.00 | 0.00 | 0.00 | 52 | 1016.9 |
| 20260901120605 | 28 | 228 | 1.6 | 8.0 | 0.00 | 0.00 | 0.00 | 48 | 1016.9 |
| 20260901120104 | 28 | 237 | 3.2 | 8.0 | 0.00 | 0.00 | 0.00 | 49 | 1017.3 |
| 20260901115604 | 28 | 305 | 1.6 | 9.7 | 0.00 | 0.00 | 0.00 | 51 | 1017.3 |
| 20260901115104 | 28 | 237 | 4.8 | 9.7 | 0.00 | 0.00 | 0.00 | 49 | 1017.3 |
| 20260901114605 | 28 | 250 | 3.2 | 11.3 | 0.00 | 0.00 | 0.00 | 45 | 1017.3 |
| 20260901114104 | 28 | 246 | 4.8 | 12.9 | 0.00 | 0.00 | 0.00 | 44 | 1017.3 |
| 20260901113605 | 28 | 236 | 3.2 | 12.9 | 0.00 | 0.00 | 0.00 | 44 | 1017.3 |
| 20260901113104 | 28 | 253 | 3.2 | 11.3 | 0.00 | 0.00 | 0.00 | 44 | 1017.3 |
| 20260901112604 | 28 | 212 | 3.2 | 9.7 | 0.00 | 0.00 | 0.00 | 45 | 1017.3 |
| 20260901112105 | 28 | 321 | 9.7 | 12.9 | 0.00 | 0.00 | 0.00 | 44 | 1017.3 |
| 20260901111604 | 28 | 245 | 3.2 | 12.9 | 0.00 | 0.00 | 0.00 | 45 | 1017.3 |
| 20260901110605 | 28 | 325 | 4.8 | 8.0 | 0.00 | 0.00 | 0.00 | 41 | 1017.5 |
| 20260901110105 | 28 | 332 | 1.6 | 8.0 | 0.00 | 0.00 | 0.00 | 40 | 1017.6 |
| 20260901105604 | 28 | 6 | 1.6 | 4.8 | 0.00 | 0.00 | 0.00 | 40 | 1017.6 |
| 20260901105105 | 28 | 344 | 0.0 | 4.8 | 0.00 | 0.00 | 0.00 | 41 | 1017.6 |
| 20260901104605 | 28 | 346 | 0.0 | 4.8 | 0.00 | 0.00 | 0.00 | 41 | 1017.8 |
| 20260901104104 | 28 | 358 | 1.6 | 4.8 | 0.00 | 0.00 | 0.00 | 41 | 1017.8 |
| 20260901103605 | 27 | 349 | 1.6 | 4.8 | 0.00 | 0.00 | 0.00 | 41 | 1017.6 |
| 20260901103105 | 27 | 338 | 1.6 | 9.7 | 0.00 | 0.00 | 0.00 | 42 | 1017.6 |